Regional Weather Roundup
Issued by NWS Newport/Morehead, NC

Current Version | Previous Version | Graphics & Text | Print | Product List | Glossary Off
Versions: 1 2 3 4 5 6 7 8 9 10 11 12 13 14 15 16 17 18 19 20 21 22 23 24 25 26 27 28 29 30 31 32 33 34 35 36 37 38 39 40 41 42 43 44 45 46 47 48 49 50

000
ASUS42 KMHX 181222
RWRMHX
WEATHER ROUNDUP FOR EASTERN NORTH CAROLINA
NATIONAL WEATHER SERVICE NEWPORT/MOREHEAD CITY NC
700 AM EST THU DEC 18 2014

NOTE: "FAIR" INDICATES FEW OR NO CLOUDS BELOW 12,000 FEET
WITH NO SIGNIFICANT WEATHER AND/OR OBSTRUCTIONS TO VISIBILITY

NCZ015>017-031-032-045>047-102-103-181300-
NORTH COAST

CITY           SKY/WX    TMP DP  RH WIND       PRES   REMARKS
EDENTON          N/A     33  31  92 CALM      30.16R
ELIZABETH CITY CLEAR     35  27  72 NW5       30.15R
KITTY HAWK     SUNNY     42  32  69 N8        30.12R
MANTEO         CLEAR     41  33  73 N7        30.13R

$$

NCZ045>047-081-094-103-104-181300-
CENTRAL COAST

CITY           SKY/WX    TMP DP  RH WIND       PRES   REMARKS
FRISCO         CLEAR     45  40  82 VRB7      30.12R
SWANQUARTER      N/A     36 N/A N/A VRB1      30.12R

$$

NCZ095-097-098-100-101-181300-
SOUTHERN COAST

CITY           SKY/WX    TMP DP  RH WIND       PRES   REMARKS
BEAUFORT       CLEAR     42  35  76 N8        30.14R
CEDAR ISLAND     N/A     45 N/A N/A N10G16    30.18R
JACKSONVILLE   CLEAR     42  32  67 N8        30.15R
PINEY ISLAND   NOT AVBL
WILMINGTON     CLEAR     38  36  92 CALM      30.14R


$$

NCZ011>013-027>030-043-044-078>080-089-090>093-098-181300-
COASTAL PLAIN

CITY           SKY/WX    TMP DP  RH WIND       PRES   REMARKS
AHOSKIE        CLEAR     28  26  94 CALM      30.17R
CLINTON        PTCLDY    36  35  97 CALM      30.17R
ELIZABETHTOWN  PTCLDY    37  36  96 CALM      30.15R
GOLDSBORO      CLEAR     39  34  84 CALM      30.14R
GREENVILLE     CLEAR     34  32  93 CALM      30.17R
HAVELOCK       CLEAR     43  33  68 N10       30.15R
KENANSVILLE    CLEAR     35  31  87 N3        30.17R
KINSTON        CLEAR     34  30  86 CALM      30.16R
NEW BERN       CLEAR     40  31  70 N6        30.16R
RICHLANDS      CLEAR     34  28  80 NW3       30.17R
ROCKY MOUNT    CLEAR     33  27  78 CALM      30.17R
WASHINGTON     CLEAR     35  30  83 N3        30.16R
WHITEVILLE     PTCLDY    40  35  83 CALM      30.15R

$$

AMZ130-135-150-152-154-156-158-170-250-252-270-ANZ085-086-088-633-658-670-181300-
MARINE OBSERVATIONS

STATION/POSITION TIME  TEMP    WIND        PRES    WAVE   SWELL
                       AIR SEA DIR/SP/G            HT/PER HT/PER
                 (UTC) (F)     (DEG/KT/KT) (MB)    (FT/S) (FT/S)
CHESAPEAKE LIGHT 1200   41     350/ 17/ 19 1020.8
64 E VA BEACH    1200   44 54  350/ 21/ 25 1018.6    7/ 6   2/11
DUCK             1200   41 49  330/ 11/ 13 1019.4
2 E DUCK         1200      49                N/A     4/ 5
10 NE DUCK       1200      52                N/A     5/ 5
OREGON INLET     1200   42 51  340/  8/ 14 1020.0
13E OREGON INLT  1200      53                N/A     4/ 4
HATTERAS CG      1200   47 54   10/ 15/ 17 1020.0
DIAMOND BUOY     1200   50                 1019.3    3/ 3
17 S OCRACOKE    NOT AVBL
CAPE LOOKOUT     1200   46     350/  9/ 10 1020.0
BEAUFORT LAB     1200   45 54  350/  8/ 14 1019.3
30 SE NEW RIVER  1200   52 60   10/ 19/ 21 1020.0    3/ 3   2/ 8
5 SE WRIGHTSVLE  NOT AVBL
225 S CAPE HAT   1135   69 72  290/ 10/ 14 1018.3    4/ 7   3/ 7
41 SE CHARLESTON 1200   60 73  310/  8/ 12 1019.9    1/11   2/11

$$


USA.gov is the U.S. government's official web portal to all federal, state and local government web resources and services.